This is the latest recevied weather packets stored in our database for station/object M0HPP-13. If no packets are shown the sender has not sent any weather packets the latest 10 day(s).
| Time | Temp. | Humidity | Pressure | Rain* | Wind** | Luminosity | Snow |
|---|---|---|---|---|---|---|---|
| 1787845086 | 16.11° C | 95% | 1012.5 hPa | 0 mm | - | 280 W/m² | - |
| 1787844486 | 16.11° C | 95% | 1012.6 hPa | 0 mm | - | 271 W/m² | - |
| 1787843886 | 16.11° C | 96% | 1012.6 hPa | 0 mm | - | 296 W/m² | - |
| 1787843286 | 16.11° C | 97% | 1012.9 hPa | 0 mm | - | 272 W/m² | - |
| 1787842686 | 16.11° C | 96% | 1012.9 hPa | 0 mm | - | 308 W/m² | - |
| 1787842086 | 16.11° C | 97% | 1013 hPa | 0 mm | - | 319 W/m² | - |
| 1787841486 | 15.56° C | 97% | 1013.1 hPa | 0 mm | - | 259 W/m² | - |
| 1787840886 | 15.56° C | 98% | 1013.2 hPa | 0 mm | - | 241 W/m² | - |
| 1787840286 | 15° C | 98% | 1013.2 hPa | 0 mm | - | 224 W/m² | - |
| 1787839686 | 15.56° C | 98% | 1013.4 hPa | 0 mm | - | 226 W/m² | - |
| 1787839086 | 15.56° C | 97% | 1013.4 hPa | 0 mm | - | 251 W/m² | - |
| 1787838486 | 15.56° C | 96% | 1013.5 hPa | 0 mm | - | 263 W/m² | - |
| 1787837886 | 15.56° C | 95% | 1013.6 hPa | 0 mm | - | 285 W/m² | - |
| 1787837287 | 16.11° C | 94% | 1013.5 hPa | 0 mm | - | 288 W/m² | - |
| 1787836686 | 16.11° C | 94% | 1013.6 hPa | 0 mm | - | 369 W/m² | - |
| 1787836086 | 16.11° C | 95% | 1013.6 hPa | 0 mm | - | 357 W/m² | - |
| 1787835486 | 15.56° C | 96% | 1013.8 hPa | 0 mm | - | 399 W/m² | - |
| 1787834886 | 15.56° C | 97% | 1014 hPa | 0 mm | - | 238 W/m² | - |
| 1787834286 | 15.56° C | 97% | 1014.1 hPa | 0 mm | - | 244 W/m² | - |
| 1787833686 | 15° C | 98% | 1014.2 hPa | 0 mm | - | 242 W/m² | - |
| 1787833086 | 15° C | 99% | 1014.2 hPa | 0 mm | - | 212 W/m² | - |
| 1787831286 | 15° C | 98% | 1014.4 hPa | 0 mm | - | 110 W/m² | - |
| 1787830686 | 15° C | 98% | 1014.4 hPa | 0 mm | - | 231 W/m² | - |
| 1787830086 | 14.44° C | 99% | 1014.4 hPa | 0 mm | - | 233 W/m² | - |
| 1787829486 | 14.44° C | 99% | 1014.5 hPa | 0 mm | - | 199 W/m² | - |
* Rain latest hour (hover to see other rain measurements)
** Current wind speed in m/s (hover to see current wind gust speed)